Pasco, WA
on Wednesday, December 5, 2012

Wednesday
Previous Day Next Day
Daily Summary
 ActualAverageRecord
Temperature
Mean Temperature °F 35°F  
Max Temperature 56°F 42°F 56°F (1991)
Min Temperature 33°F 28°F 3°F (2013)
Degree Days
Heating Degree Days 20 30  
Month to date heating degree days 74 148  
Since 1 July heating degree days 1171 1377  
Cooling Degree Days 0 0  
Month to date cooling degree days 0 0  
Year to date cooling degree days 788 710  
Moisture
Dew Point 34°F   
Average Humidity 69    
Maximum Humidity 96    
Minimum Humidity 41    
Precipitation
Precipitation T in 0.03 in 0.44 in (1978)
Month to date precipitation 0.27 0.15  
Year to date precipitation 8.83 7.77  
Snow
Snow 0.00 in in in ()
Snow Depth 0.00 in   
Wind
Wind Speed 13 mph   
Max Wind Speed 21 mph   
Max Gust Speed 26 mph   
Visibility 10 miles   
Events     

Key: T is trace of precipitation, MM is missing value
Source: NWS Daily Summary
Time(PST)TemperatureDew PointHumidity Pressure Visibility Wind DirectionWind SpeedGust SpeedPrecipitationEvents Conditions
12:53 AM 55.9°F 43.0°F 62% 29.78 in 10.0 miles SW 19.6 mph - N/A   Overcast
1:53 AM 53.1°F 43.0°F 69% 29.83 in 10.0 miles SW 18.4 mph - N/A   Overcast
2:53 AM 52.0°F 37.9°F 59% 29.86 in 10.0 miles SW 18.4 mph 25.3 mph N/A   Clear
3:53 AM 48.9°F 36.0°F 61% 29.92 in 10.0 miles SW 17.3 mph 25.3 mph N/A   Scattered Clouds
4:53 AM 46.9°F 36.0°F 66% 29.96 in 10.0 miles SW 17.3 mph - N/A   Clear
6:53 AM 42.1°F 34.0°F 73% 30.05 in 10.0 miles NNE 4.6 mph - N/A   Clear
7:53 AM 42.1°F 33.1°F 70% 30.09 in 10.0 miles SW 10.4 mph - N/A   Clear
8:53 AM 46.0°F 33.1°F 61% 30.12 in 10.0 miles SW 11.5 mph - N/A   Clear
9:53 AM 48.0°F 32.0°F 54% 30.15 in 10.0 miles West 6.9 mph - N/A   Clear
10:53 AM 50.0°F 33.1°F 52% 30.16 in 10.0 miles SW 13.8 mph - N/A   Clear
11:53 AM 51.1°F 30.0°F 44% 30.16 in 10.0 miles WSW 11.5 mph - N/A   Clear
12:53 PM 52.0°F 30.9°F 45% 30.16 in 10.0 miles WSW 6.9 mph - N/A   Partly Cloudy
1:53 PM 52.0°F 28.9°F 41% 30.16 in 10.0 miles SW 10.4 mph - N/A   Clear
2:53 PM 51.1°F 30.9°F 46% 30.17 in 10.0 miles WSW 10.4 mph - N/A   Clear
3:53 PM 46.9°F 32.0°F 56% 30.19 in 10.0 miles SW 8.1 mph - N/A   Clear
4:53 PM 43.0°F 33.1°F 68% 30.19 in 10.0 miles WSW 6.9 mph - N/A   Clear
5:53 PM 41.0°F 33.1°F 73% 30.21 in 10.0 miles SW 9.2 mph - N/A   Clear
6:53 PM 42.1°F 32.0°F 67% 30.22 in 10.0 miles SSE 3.5 mph - N/A   Clear
7:53 PM 41.0°F 32.0°F 70% 30.21 in 10.0 miles SSW 4.6 mph - N/A   Clear
8:53 PM 39.0°F 32.0°F 76% 30.21 in 10.0 miles Calm Calm - 0.00 in   Clear
9:53 PM 36.0°F 33.1°F 89% 30.22 in 10.0 miles Calm Calm - N/A   Clear
10:53 PM 34.0°F 32.0°F 92% 30.22 in 10.0 miles Calm Calm - N/A   Clear
11:53 PM 39.0°F 33.1°F 79% 30.20 in 10.0 miles South 5.8 mph - N/A   Clear
Moon Phase
Dec. 05 Dec. 06 Dec. 13 Dec. 20 Dec. 28
Sunrise:07:24 AM (PST) Moon Rise:11:23 PM (PST)12/5
Sunset:04:10 PM (PST) Moon Set:11:33 AM (PST)12/5

Copyright © 2014 The Weather Underground, Inc.